Miscellaneous Local Product
Issued by NWS Hastings, NE

Home | Current Version | Previous Version | Graphics & Text | Print | Product List | Glossary On
Versions: 1 2 3 4 5 6 7 8 9 10 11 12 13 14 15 16 17 18 19 20 21 22 23 24 25 26 27 28 29 30 31 32 33 34 35 36 37 38 39 40 41 42 43 44 45 46 47 48 49 50
000
AXUS43 KGID 291102
MISGRI

GID CWA HOURLY WEATHER ROUNDUP
NATIONAL WEATHER SERVICE HASTINGS NE
600 AM CDT SUN MAR 29 2015

NOTE: "FAIR" INDICATES FEW OR NO CLOUDS BELOW 12,000 FEET WITH NO
SIGNIFICANT WEATHER AND/OR OBSTRUCTIONS TO VISIBILITY.

...SOUTH CENTRAL NEBRASKA...

CITY           SKY/WX    TMP DP  RH WIND       PRES   REMARKS
GRAND ISLAND   MOCLDY    42  36  79 W7        29.89R
HASTINGS       FAIR      43  37  79 N6        29.88R
KEARNEY        MOCLDY    52  36  54 N13       29.91R
ORD            MOCLDY    39  32  76 NW8       29.88R WCI  33
YORK           MOCLDY    41  37  87 S6        29.87S
AURORA         MOCLDY    41  37  87 SW6       29.88R
LEXINGTON      MOCLDY    54  34  47 N13       29.93R
HOLDREGE       MOCLDY    55  34  45 N10G18    29.91R
HEBRON         CLOUDY    46  39  76 W3        29.89R

...NEBRASKA PANHANDLE...

CITY           SKY/WX    TMP DP  RH WIND       PRES   REMARKS
CHADRON        CLOUDY    47  32  56 NW20G31   30.14R
ALLIANCE       CLEAR     47  25  42 NW28G41   30.08R
SCOTTSBLUFF    CLEAR     48  24  39 NW33G46   30.08R
SIDNEY         CLEAR     43  17  35 NW12      30.11R

...WESTERN AND NORTH CENTRAL NEBRASKA...

CITY           SKY/WX    TMP DP  RH WIND       PRES   REMARKS
VALENTINE      CLEAR     42  33  70 W14       29.94R
AINSWORTH      CLEAR     47  33  57 W14       29.92R
ONEILL         CLEAR     43  35  72 W8        29.84R
BROKEN BOW     PTCLDY    47  33  58 W9        29.92R
IMPERIAL       CLEAR     48  31  51 NW12      30.05R
NORTH PLATTE   CLEAR     42  32  67 W9        29.99R
MCCOOK         PTCLDY    54  31  41 NW17      29.96R

...EASTERN NEBRASKA...

CITY           SKY/WX    TMP DP  RH WIND       PRES   REMARKS
NORFOLK        PTCLDY    46  37  71 W10       29.82S
SO SIOUX CITY  PTCLDY    44  34  67 SW8       29.80R
TEKAMAH        MOCLDY    40  32  73 SE15G31   29.84F WCI  32
COLUMBUS       PTCLDY    36  27  69 CALM      29.86S
ALBION         MOCLDY    46  35  65 NW5G20    29.86R
OMAHA EPPLEY   MOCLDY    43  34  70 S16       29.87F
OFFUTT AFB     MOCLDY    41  34  76 S7        29.88F
MILLARD        PTCLDY    41  34  75 SE5       29.90S
LINCOLN        CLOUDY    42  35  76 SE6       29.89S
NEBRASKA CITY  CLOUDY    40  34  78 CALM      29.91R
BEATRICE       MOCLDY    44  37  78 S9        29.88R
FALLS CITY     CLOUDY    43  35  73 S10G23    29.89R

...NORTHERN KANSAS...

CITY           SKY/WX    TMP DP  RH WIND       PRES   REMARKS
GOODLAND       PTCLDY    53  35  50 N20G31    30.02R
HILL CITY      CLEAR     58  36  43 N18       29.92R
NORTON         SUNNY     57  28  33 N20G25    29.92R
PHILLIPSBURG   CLEAR     61  37  41 N15       29.91R
SMITH CENTER   CLEAR     46  39  76 NW12      29.90R
BELOIT         CLEAR     46  39  76 CALM      29.86R
HAYS           PTCLDY    54  39  58 W7        29.87R
RUSSELL        PTCLDY    56  45  66 SW8       29.86F
CONCORDIA      MOCLDY    47  40  76 S9        29.85F
SALINA         MOCLDY    53  42  66 VRB5      29.92R
TOPEKA         MOCLDY    44  37  76 SE10      29.92S



USA.gov is the U.S. government's official web portal to all federal, state and local government web resources and services.